{"data":{"norad_id":63869,"epoch":"2026-05-25T02:53:06.202752Z","epoch_age_seconds":60793,"freshness":"FRESH","line1":"1 63869U 25094F   26145.12021068  .00003647  00000+0  31323-3 0  9994","line2":"2 63869  70.0019  41.6732 0002624 269.5826  90.5032 14.98338483 58650","mean_motion":14.98338483,"eccentricity":0.0002624,"inclination_deg":70.0019,"raan_deg":41.6732,"arg_perigee_deg":269.5826,"mean_anomaly_deg":90.5032,"bstar":0.00031323,"rev_number":5865,"period_min":96.106455005868,"perigee_km":570.20593435937,"apogee_km":573.85338182153,"semimajor_km":6950.1666580904,"source":"CELESTRAK","updated_at":"2026-05-25T13:38:20.170094Z"}}